WESTFORD NEEDLES, 2431

Orbit data source: Space-Track

WESTFORD NEEDLES, 2431 is space debris in LEO originally from a launch on Thu, 09 May 1963 UTC launched from the Air Force Western Test Range (AFWTR). Debris objects in space refer to the collection of defunct objects orbiting the Earth. Examples of debris include non-operational satellites, rocket bodies, and fragments generated from explosions, collisions, or faulty payload assembly.

Loading next visibility...
Identifier
2431, 1963-014AC
Orbit
LEO
Country
Flag of USUS
Related business
Manufacturer
Unknown
Mission
Spacecraft
Bus & Motor
Unknown
Mass
Unknown
Launch date (UTC)
1963-05-09 (63 years ago)
Launch vehicle
Unknown
Launch site
Air Force Western Test Range (AFWTR)
Object type
Payload
Rocket body
Debris
Shape & HBR
Unknown shape, 0.3 m
Radar Cross Section
Medium (>0.1 m² and <1 m²)

Expand to show TLE details & history
Last TLE update: 2 weeks ago

TLE from 2 weeks ago
0 WESTFORD NEEDLES
1 02431U 63014AC  26125.18760946  .00000131  00000-0  55525-1 0  9999
2 02431  87.5396 196.2354 0322589 330.9747  27.3512  8.68499451365976
Epoch: 2026-05-05T04:30Z
TLE epoch observation values (Epoch: 2026-05-05T04:30:09.457Z)
Latitude
0.00005°
Longitude
-94.37005°
Altitude
3,337.312 km
Speed
6.496 km/s
True Right ascension
13h 04m 56s
True Declination
0° 00' 00"
Sunlit
Object was in full shadow at epoch
Visualization orbit readout
Latitude
Unknown
Longitude
Unknown
Altitude
Unknown
Speed
Unknown
Apparent Right ascension
Unknown
Apparent Declination
Unknown
Sunlit
N/A
Visualization observer readout
Local Sidereal Time
20:36:21
Azimuth
Unknown
Elevation
Unknown
Doppler factor
Unknown
Orbital elements
Apogee altitude
3,939.552 km
Perigee altitude
3,294.68 km
Semi-major axis
9,995.253 km
Eccentricity
0.03226
Inclination
87.5396°
RAAN
196.2354°
Arg. of periapsis
330.9747°
True anomaly
29.11229°
Mean anomaly
27.3512°
Eccentric anomaly
28.22534°
Mean motion
2.17196 °/min
Orbital period
165.75 mins
BSTAR
0.055525

Documentation

Showing up to 5 results
|